[[{"header":{"parameterUnit":"m.s-1","parameterCategory":1,"la1":30.2991,"la2":30.254,"lo1":-89.0895,"lo2":-89.0444,"dy":0.0017,"dx":0.0017,"nx":28,"ny":28,"refTime":"2025-07-05T09:00:00:Z","depth":0,"parameterNumber":2,"parameterNumberName":"U-component_of_WINDS"},"data":[0,0,0,0,0,0,0,0,0,0,0,0,0,0,0,0,0,0,0,0,0,0,0,0,0,0,0,0,0,0,0,0,0,0,0,0,0,0,0,0,0,0,0,0,0,0,0,0,0,0,0,0,0,0,0,0,0,0,1.2199,1.2201,0,1.2371,1.2373,1.2375,1.2444,1.2444,1.2444,1.2443,1.2613,1.2618,1.2623,0,0,0,0,0,0,0,0,0,0,0,0,0,1.1925,1.193,1.2199,1.2201,1.2204,1.2371,1.2373,1.2376,1.2444,1.2444,1.2443,1.2443,1.2611,1.2617,1.2623,0,0,0,0,0,0,0,0,0,0,0,0,0,1.2065,1.1931,1.2199,1.2258,1.2265,1.2371,1.2373,1.2376,1.2445,1.2444,1.2443,1.2443,1.2609,1.2617,1.2624,1.2681,0,0,1.2646,1.2649,0,0,0,0,0,0,0,0,1.2057,1.2075,1.2247,1.2254,1.2262,1.2386,1.2339,1.2478,1.2445,1.2376,1.2443,1.2442,1.2537,1.2551,1.2584,1.2689,1.2696,1.2647,1.2651,1.2654,1.2657,0,0,0,0,0,0,0,1.2047,1.2068,1.2267,1.225,1.2259,1.2275,1.2294,1.2366,1.2458,1.2382,1.2388,1.2407,1.2541,1.2577,1.2589,1.2699,1.2647,1.2653,1.2658,1.2661,1.286,1.2861,0,0,0,0,0,0,1.2029,1.206,1.2262,1.2272,1.2156,1.228,1.2302,1.2347,1.2457,1.2474,1.2408,1.241,1.2565,1.258,1.2595,1.267,1.2654,1.2661,1.2665,1.2859,1.286,1.2861,0,0,0,0,0,0,1.2023,1.2046,1.2255,1.2168,1.2195,1.2285,1.2336,1.235,1.2386,1.2477,1.2493,1.2427,1.2565,1.2584,1.266,1.2677,1.2665,1.2671,1.2858,1.286,1.2861,1.282,0,0,0,0,0,0,1.2014,1.2043,1.2067,1.2168,1.22,1.2318,1.2337,1.2354,1.2399,1.2404,1.2499,1.2515,1.2566,1.2648,1.2667,1.2687,1.2677,1.2857,1.2859,1.286,1.282,1.2819,1.2819,0,0,0,0,0,1.2004,1.2047,1.2068,1.2092,1.2232,1.2319,1.2337,1.2397,1.24,1.2424,1.2483,1.2512,1.2672,1.2656,1.2677,1.2699,1.2856,1.2858,1.286,1.282,1.2819,1.2819,0,0,0,0,0,0,1.1943,1.2061,1.2086,1.2162,1.2231,1.233,1.2362,1.2394,1.2461,1.2462,1.2532,1.2553,1.2622,1.2668,1.2648,1.2761,1.2766,1.2773,1.2728,1.2728,1.2728,1.2715,1.2683,0,0,0,0,0,1.1939,1.2002,1.2101,1.2159,1.2192,1.2271,1.2311,1.2352,1.2424,1.2453,1.2517,1.2584,1.265,1.2692,1.2757,1.2827,1.2849,1.2853,1.2852,1.2851,1.2856,1.2897,1.29,1.2868,1.2868,1.2868,0,0,1.193,1.2002,1.2037,1.2149,1.2206,1.2268,1.2295,1.2359,1.2406,1.2462,1.2538,1.2587,1.2667,1.274,1.2775,1.278,1.287,1.2854,1.2853,1.2858,1.2899,1.2902,1.2905,1.2869,1.2869,1.2869,0,0,1.1946,1.2007,1.2063,1.2121,1.2209,1.2262,1.2275,1.2371,1.2407,1.2485,1.2528,1.2584,1.2695,1.2751,1.2794,1.2833,1.2862,1.2852,1.285,1.2889,1.2891,1.2894,1.2908,1.2912,1.2856,1.2856,1.2856,0,1.1923,1.2021,1.2087,1.2151,1.2198,1.2255,1.2311,1.2363,1.2466,1.2497,1.2502,1.2645,1.2702,1.279,1.28,1.2832,1.2849,1.2841,1.2886,1.2889,1.2893,1.2907,1.2912,1.2855,1.2855,1.2855,1.2855,0,1.1989,1.2056,1.2091,1.2193,1.2244,1.2303,1.2377,1.242,1.2457,1.2508,1.2587,1.2658,1.274,1.2764,1.2798,1.2856,1.2857,1.2873,1.288,1.2893,1.2907,1.2913,1.2852,1.2853,1.2853,1.2854,0,0,1.197,1.211,1.2121,1.2169,1.2271,1.2323,1.2384,1.2467,1.2503,1.2572,1.2625,1.272,1.2736,1.2784,1.2826,1.2861,1.2888,1.2873,1.2876,1.2873,1.2956,1.2943,1.2948,1.2908,1.2909,1.291,1.2949,0,1.2,1.2116,1.2178,1.2266,1.2329,1.2384,1.2438,1.2505,1.2556,1.2615,1.2669,1.2736,1.2752,1.2782,1.2818,1.2876,1.2905,1.2875,1.2956,1.2959,1.2935,1.2956,1.2943,1.2976,1.2955,1.2956,1.2957,0,1.2051,1.2123,1.2218,1.2315,1.2343,1.2391,1.2472,1.2528,1.2605,1.2639,1.2695,1.2737,1.2802,1.2805,1.2896,1.2874,1.2911,1.2945,1.2948,1.2957,1.2958,1.2966,1.2988,1.2992,1.2966,1.2966,1.2965,0,1.2028,1.2148,1.2222,1.226,1.2374,1.2406,1.2455,1.2532,1.2578,1.2648,1.2679,1.2754,1.2795,1.2852,1.2913,1.2909,1.2999,1.3006,1.3028,1.3026,1.3044,1.3042,1.3072,1.3068,1.3068,1.3067,1.3067,0,1.2055,1.2111,1.2213,1.2258,1.2323,1.2393,1.2454,1.2507,1.2575,1.263,1.2682,1.2732,1.2809,1.2869,1.2916,1.2985,1.3003,1.3032,1.3044,1.3027,1.3023,1.3052,1.3051,1.3069,1.3069,1.3068,1.3068,0,1.204,1.2111,1.2195,1.2297,1.2324,1.2367,1.2453,1.2498,1.2552,1.2621,1.2641,1.2724,1.2797,1.2864,1.2959,1.2992,1.3061,1.3076,1.3035,1.3042,1.306,1.3058,1.3109,1.312,1.3108,1.3108,1.3108,0,1.2053,1.2098,1.2206,1.2248,1.2296,1.2362,1.241,1.2481,1.2528,1.2621,1.2654,1.2732,1.2797,1.2911,1.2978,1.3052,1.3069,1.3083,1.3081,1.3063,1.307,1.3066,1.3071,1.3081,1.3081,1.3081,1.3081,0,1.2068,1.2101,1.217,1.2251,1.2307,1.2374,1.2442,1.2472,1.2556,1.2606,1.2683,1.2734,1.2833,1.2909,1.2991,1.3039,1.3073,1.3081,1.309,1.3074,1.3048,1.3063,1.3033,1.3079,1.308,1.308,1.308,1.308,1.2068,1.2111,1.2194,1.2269,1.2328,1.2391,1.2439,1.2499,1.2565,1.2653,1.269,1.2768,1.2844,1.2959,1.3006,1.3067,1.3074,1.3087,1.309,1.3092,1.3089,1.3039,1.3082,1.3082,1.3082,1.3082,1.3082,0,1.2086,1.2143,1.2211,1.2306,1.2364,1.2395,1.2472,1.2518,1.2587,1.2656,1.2721,1.2808,1.2882,1.2957,1.3034,1.3069,1.3086,1.3087,1.3084,1.3095,1.3078,1.3063,1.3071,1.3071,1.3071,1.3071,1.3071,1.3071,1.2102,1.2177,1.222,1.2325,1.2381,1.246,1.2501,1.2559,1.2615,1.2712,1.2775,1.2824,1.2895,1.2979,1.3047,1.3067,1.3093,1.3089,1.3113,1.3096,1.3096,1.3096,1.3082,1.3094,1.3094,1.3125,1.3125,1.3125]},{"header":{"parameterUnit":"m.s-1","parameterCategory":1,"la1":30.2991,"la2":30.254,"lo1":-89.0895,"lo2":-89.0444,"dy":0.0017,"dx":0.0017,"nx":28,"ny":28,"refTime":"2025-07-05T09:00:00:Z","depth":0,"parameterNumber":3,"parameterNumberName":"V-component_of_WINDS"},"data":[0,0,0,0,0,0,0,0,0,0,0,0,0,0,0,0,0,0,0,0,0,0,0,0,0,0,0,0,0,0,0,0,0,0,0,0,0,0,0,0,0,0,0,0,0,0,0,0,0,0,0,0,0,0,0,0,0,0,-0.0051,-0.0054,0,-0.0287,-0.029,-0.0293,-0.0373,-0.0372,-0.0372,-0.0371,-0.0622,-0.0629,-0.0637,0,0,0,0,0,0,0,0,0,0,0,0,0,0.0322,0.0315,-0.0051,-0.0054,-0.0057,-0.0287,-0.029,-0.0293,-0.0374,-0.0372,-0.0371,-0.037,-0.062,-0.0629,-0.0638,0,0,0,0,0,0,0,0,0,0,0,0,0,0.013,0.0313,-0.005,-0.0124,-0.0133,-0.0286,-0.029,-0.0294,-0.0374,-0.0372,-0.0371,-0.037,-0.0617,-0.0628,-0.0639,-0.0738,0,0,-0.0674,-0.0679,0,0,0,0,0,0,0,0,0.0141,0.0116,-0.011,-0.0119,-0.013,-0.0299,-0.0251,-0.0444,-0.0374,-0.0283,-0.0371,-0.0369,-0.0516,-0.0536,-0.0584,-0.075,-0.0761,-0.0675,-0.0682,-0.0687,-0.069,0,0,0,0,0,0,0,0.0154,0.0126,-0.0145,-0.0114,-0.0125,-0.0149,-0.0174,-0.0288,-0.0405,-0.0291,-0.0297,-0.0323,-0.0522,-0.0573,-0.059,-0.0765,-0.0674,-0.0685,-0.0692,-0.0696,-0.1028,-0.103,0,0,0,0,0,0,0.0181,0.0138,-0.0137,-0.0152,0.0012,-0.0157,-0.0185,-0.0246,-0.0404,-0.0427,-0.0324,-0.0326,-0.0554,-0.0577,-0.0599,-0.073,-0.0686,-0.0697,-0.0704,-0.1026,-0.1028,-0.103,0,0,0,0,0,0,0.019,0.0158,-0.0128,-0.0009,-0.0047,-0.0164,-0.0233,-0.0252,-0.0303,-0.0429,-0.0452,-0.0355,-0.0554,-0.0583,-0.0703,-0.0739,-0.0702,-0.0713,-0.1024,-0.1027,-0.1029,-0.0988,0,0,0,0,0,0,0.0201,0.0161,0.0124,-0.0009,-0.0053,-0.0225,-0.0235,-0.0258,-0.0321,-0.0326,-0.0464,-0.0485,-0.0555,-0.0686,-0.0715,-0.0754,-0.0722,-0.1021,-0.1025,-0.1028,-0.0987,-0.0989,-0.0991,0,0,0,0,0,0.0214,0.0144,0.0123,0.009,-0.0101,-0.0226,-0.0252,-0.0328,-0.0324,-0.0364,-0.0445,-0.0481,-0.0729,-0.0697,-0.0731,-0.0774,-0.1019,-0.1024,-0.1028,-0.0986,-0.0988,-0.0991,0,0,0,0,0,0,0.0272,0.0125,0.01,-0.0015,-0.0107,-0.024,-0.0293,-0.0328,-0.0426,-0.0427,-0.0519,-0.055,-0.0664,-0.073,-0.0692,-0.088,-0.0877,-0.0888,-0.0833,-0.0837,-0.0839,-0.0823,-0.0731,0,0,0,0,0,0.0272,0.0186,0.0061,-0.0029,-0.0073,-0.0174,-0.0232,-0.0282,-0.0383,-0.0423,-0.0513,-0.0612,-0.0713,-0.0778,-0.0877,-0.0995,-0.1029,-0.1041,-0.1043,-0.1044,-0.1055,-0.1126,-0.1134,-0.1045,-0.1045,-0.1045,0,0,0.027,0.0179,0.0129,-0.002,-0.0097,-0.0188,-0.0207,-0.0302,-0.0372,-0.0439,-0.0558,-0.0627,-0.0744,-0.0863,-0.0921,-0.0923,-0.1086,-0.105,-0.105,-0.106,-0.1131,-0.1139,-0.1147,-0.1048,-0.1048,-0.1047,0,0,0.0218,0.0143,0.0059,-0.0018,-0.0133,-0.02,-0.0219,-0.0347,-0.0395,-0.0514,-0.0567,-0.0652,-0.0822,-0.0904,-0.0968,-0.1049,-0.1087,-0.1079,-0.1092,-0.116,-0.1167,-0.1174,-0.1207,-0.1217,-0.1087,-0.1087,-0.1087,0,0.0228,0.0093,0.0019,-0.0073,-0.0139,-0.0199,-0.0288,-0.0359,-0.0502,-0.0548,-0.0546,-0.0762,-0.0845,-0.0987,-0.1006,-0.1054,-0.1083,-0.1066,-0.1159,-0.1167,-0.1174,-0.1207,-0.1219,-0.1086,-0.1086,-0.1086,-0.1086,0,0.0109,0.0016,-0.0039,-0.0173,-0.0244,-0.0333,-0.0424,-0.0487,-0.053,-0.0598,-0.0721,-0.0821,-0.0943,-0.098,-0.1024,-0.1128,-0.1126,-0.114,-0.114,-0.118,-0.1213,-0.1225,-0.1084,-0.1084,-0.1085,-0.1085,0,0,0.0083,-0.0088,-0.0107,-0.017,-0.03,-0.0376,-0.0469,-0.0585,-0.064,-0.0736,-0.082,-0.0962,-0.0976,-0.1048,-0.1102,-0.1161,-0.1223,-0.1169,-0.1173,-0.1179,-0.1349,-0.1341,-0.1354,-0.1247,-0.1249,-0.1251,-0.1341,0,0.0011,-0.0155,-0.0224,-0.036,-0.045,-0.0507,-0.0589,-0.068,-0.0745,-0.0833,-0.0906,-0.1007,-0.1016,-0.106,-0.112,-0.1202,-0.1259,-0.1196,-0.1331,-0.1334,-0.1304,-0.137,-0.1362,-0.1441,-0.1353,-0.1356,-0.1357,0,-0.0096,-0.019,-0.0334,-0.0455,-0.0496,-0.0567,-0.068,-0.0762,-0.0867,-0.0911,-0.099,-0.104,-0.1144,-0.1132,-0.1279,-0.1234,-0.1293,-0.1341,-0.1346,-0.1366,-0.1352,-0.1396,-0.1468,-0.1482,-0.1377,-0.1375,-0.1374,0,-0.0106,-0.0268,-0.0376,-0.0427,-0.057,-0.062,-0.0682,-0.0785,-0.0851,-0.095,-0.0995,-0.1105,-0.1167,-0.1253,-0.1333,-0.1316,-0.1473,-0.1467,-0.1517,-0.1515,-0.1552,-0.1549,-0.1639,-0.158,-0.158,-0.158,-0.1579,0,-0.0182,-0.027,-0.0383,-0.045,-0.055,-0.0628,-0.0726,-0.0793,-0.0884,-0.0968,-0.1024,-0.1102,-0.12,-0.1292,-0.1355,-0.1469,-0.1496,-0.1537,-0.1554,-0.1535,-0.153,-0.1579,-0.1577,-0.1583,-0.1582,-0.1582,-0.1581,0,-0.0213,-0.0291,-0.0413,-0.0537,-0.057,-0.0639,-0.0747,-0.0816,-0.0882,-0.0987,-0.1017,-0.1122,-0.1233,-0.1319,-0.1464,-0.1506,-0.1629,-0.1644,-0.1593,-0.1602,-0.1649,-0.1645,-0.1777,-0.18,-0.172,-0.1721,-0.1721,0,-0.0259,-0.0327,-0.0457,-0.0515,-0.0576,-0.0669,-0.0736,-0.0815,-0.0883,-0.1008,-0.1063,-0.1176,-0.1272,-0.1446,-0.1539,-0.165,-0.1672,-0.171,-0.169,-0.167,-0.1679,-0.1676,-0.1686,-0.1715,-0.1715,-0.1716,-0.1716,0,-0.0334,-0.0369,-0.0461,-0.0567,-0.0644,-0.0732,-0.0821,-0.0867,-0.0963,-0.1037,-0.1149,-0.1222,-0.1369,-0.1483,-0.1603,-0.1672,-0.1712,-0.172,-0.1739,-0.1724,-0.1693,-0.1715,-0.1605,-0.1719,-0.1719,-0.1718,-0.1718,-0.1718,-0.0378,-0.0441,-0.0543,-0.0644,-0.0718,-0.0801,-0.0872,-0.0946,-0.1039,-0.1163,-0.1204,-0.1321,-0.1426,-0.1592,-0.166,-0.1755,-0.1758,-0.1783,-0.1791,-0.1797,-0.1798,-0.1672,-0.1777,-0.1777,-0.1777,-0.1777,-0.1777,0,-0.046,-0.0527,-0.0618,-0.0741,-0.0821,-0.0845,-0.0946,-0.1013,-0.1113,-0.1206,-0.1298,-0.1428,-0.1539,-0.1637,-0.1754,-0.1811,-0.1832,-0.1839,-0.1839,-0.1855,-0.1786,-0.1761,-0.182,-0.182,-0.182,-0.182,-0.182,-0.182,-0.0512,-0.0623,-0.067,-0.0819,-0.0887,-0.0999,-0.1054,-0.1132,-0.1206,-0.1348,-0.1439,-0.1501,-0.1598,-0.1721,-0.1825,-0.1851,-0.1894,-0.1897,-0.1929,-0.1864,-0.1859,-0.1854,-0.1831,-0.1904,-0.1904,-0.199,-0.1991,-0.1992]}]]